Wind_Speed
27 26 25 25 24 23 22 22 21 19 17 15 15 14 12 11 10 9 9 9 10 9 8 6 4 3 3 4 6 7 8 8 8 7 5 4 2 2 2 2 4 8 12 13 11 10 11 11 11 10 8 6 5 3 1 4 5 5 7 8 8 9 10 8 9 11 12 13 14 14 14 12 12 14 12 11 9 8 8 9 9 8 8 8 7 8 9 9
28 28 27 26 25 24 24 23 22 21 19 17 16 15 13 12 11 10 10 10 11 11 9 7 5 4 3 3 5 6 7 7 7 6 5 2 1 2 2 2 5 9 12 13 12 10 10 10 10 9 7 6 5 3 1 3 4 5 6 7 7 8 9 8 9 12 12 13 12 12 11 12 15 15 12 10 8 8 9 8 8 8 8 9 9 8 8 9
28 29 28 27 26 26 25 25 24 23 21 19 18 17 15 14 13 11 11 11 12 12 11 9 7 5 3 2 3 5 7 6 6 6 4 1 1 2 2 3 5 9 12 13 12 10 9 9 7 7 7 6 5 3 2 2 2 3 5 6 6 7 8 8 9 11 11 11 11 12 13 15 17 16 13 11 9 9 8 8 9 9 8 9 9 8 7 8
28 29 29 29 27 26 26 26 25 24 23 21 19 18 17 15 14 13 12 12 13 13 12 11 9 6 4 2 2 4 6 6 6 6 3 0 2 3 3 4 6 9 10 12 12 10 8 7 6 7 6 6 6 4 3 2 1 1 3 5 5 6 7 6 7 8 8 10 13 15 16 17 17 16 14 13 11 9 8 8 10 10 9 8 8 7 6 7
28 29 30 29 29 27 27 26 26 25 24 22 21 19 18 17 15 14 13 13 15 15 14 12 10 7 5 2 2 3 6 6 6 5 3 0 1 2 4 5 7 8 9 11 12 10 7 6 6 7 6 6 6 4 4 2 2 3 2 3 4 6 5 3 5 5 7 13 16 15 15 15 15 14 14 12 10 9 8 9 9 9 9 8 6 5 5 5
27 28 30 30 30 29 27 27 27 26 25 23 22 20 19 18 16 15 14 14 16 16 15 13 11 9 6 3 2 3 5 5 5 5 3 1 0 2 4 5 6 8 9 10 10 8 7 7 7 7 6 5 5 5 5 4 3 3 2 2 4 4 1 3 4 4 10 17 18 14 13 13 13 12 11 10 8 8 8 8 8 8 9 8 5 5 4 3
27 28 29 30 30 30 28 28 27 27 25 24 23 22 20 19 18 16 15 15 16 17 16 15 13 10 7 4 3 2 4 5 6 5 3 2 0 2 4 5 5 7 8 8 8 7 8 7 7 6 5 4 4 4 5 5 3 4 4 4 4 2 4 5 3 6 13 18 17 15 14 12 12 11 10 8 7 7 7 7 7 8 9 8 6 3 3 2
27 27 29 30 30 30 29 29 28 28 26 25 23 22 21 20 19 18 16 16 16 18 18 16 14 11 8 5 4 2 3 5 6 5 3 2 0 2 4 5 6 6 7 7 7 8 8 8 7 5 5 5 3 3 4 4 4 5 5 5 5 4 6 6 3 8 16 18 17 17 15 13 12 12 11 9 8 8 8 8 8 9 9 9 7 5 2 2
26 27 28 29 30 30 30 30 29 28 28 26 25 23 22 21 20 19 18 17 17 18 19 18 15 13 9 7 5 3 2 3 5 5 3 2 0 3 4 5 6 7 7 7 7 9 9 8 7 6 5 5 3 2 3 4 5 5 4 7 7 5 7 6 4 9 16 17 17 17 16 14 14 14 14 12 9 9 10 10 10 10 10 9 8 7 5 4
26 27 27 28 29 30 31 31 30 29 29 27 26 25 23 23 21 20 19 18 18 19 20 19 17 14 11 8 7 4 2 2 4 4 3 2 1 3 5 6 7 7 8 8 8 9 9 8 8 6 5 6 4 3 5 5 6 6 5 10 9 6 6 4 4 8 14 16 16 18 17 15 16 17 17 14 11 11 11 11 10 10 9 9 9 8 7 6
25 27 27 28 29 30 31 32 31 30 29 28 27 26 24 24 22 21 20 19 19 19 20 20 18 15 13 10 8 6 3 2 3 3 2 1 2 4 5 5 7 8 10 10 10 10 9 8 8 7 7 7 5 5 7 7 8 7 6 12 11 8 7 4 5 6 10 13 15 18 17 17 18 20 17 14 12 10 9 10 10 9 9 9 9 9 8 7
24 26 27 27 28 29 31 32 32 31 30 29 28 27 25 25 23 22 21 21 20 19 20 21 19 17 14 12 10 7 5 3 2 3 3 2 2 4 5 5 7 9 10 12 12 11 10 10 8 8 9 8 6 7 9 9 10 7 8 13 12 8 8 6 7 5 6 10 14 17 17 18 20 20 16 13 11 8 7 9 10 10 10 10 9 8 8 8
23 26 27 27 27 28 30 32 32 31 31 30 29 27 26 25 24 23 22 22 21 20 21 21 20 18 16 14 12 9 6 4 3 2 3 3 3 4 5 6 8 9 10 12 13 13 12 12 11 10 10 10 10 9 11 12 11 9 12 14 11 9 10 8 7 5 4 6 11 14 15 17 19 19 15 12 11 8 8 10 11 11 11 11 10 9 10 10
23 25 27 27 27 28 30 31 31 31 31 30 29 28 27 26 25 24 24 23 22 21 22 22 21 19 18 16 13 10 8 6 4 2 2 3 3 4 5 6 8 9 10 12 14 14 14 14 13 12 12 12 12 11 12 13 13 13 15 14 12 12 12 9 6 5 5 3 7 11 13 16 17 17 16 13 11 9 8 11 11 11 12 12 11 11 11 11
23 25 27 27 27 27 29 30 31 31 31 30 29 28 28 27 26 25 25 24 23 22 22 23 22 20 19 17 14 12 10 7 5 3 2 3 3 3 4 6 7 8 10 11 13 14 14 14 14 13 13 13 12 11 12 13 14 16 15 13 13 16 14 10 7 6 6 5 6 9 12 15 15 16 16 14 12 9 8 9 11 11 11 12 12 12 11 10
23 25 27 27 27 27 29 30 30 31 30 30 29 29 28 28 27 27 26 25 23 23 23 24 23 21 20 18 16 13 11 9 6 4 3 3 3 3 4 5 7 8 9 10 12 13 14 15 15 15 14 13 12 11 12 14 15 17 16 14 14 15 13 10 8 6 7 7 7 9 10 13 13 13 14 14 12 10 8 8 10 10 10 11 11 11 10 10
23 25 27 28 27 28 29 29 30 30 30 30 29 29 29 29 28 28 27 26 24 24 24 24 24 22 21 19 17 14 12 10 8 5 3 3 3 3 4 5 7 8 10 11 12 13 14 15 14 15 15 14 12 11 11 13 15 15 16 16 14 13 12 10 8 7 7 7 7 8 9 11 12 11 11 12 11 10 8 7 8 8 8 9 10 10 10 10
23 25 27 28 28 28 29 29 29 30 30 30 30 29 30 30 29 29 27 26 25 25 25 25 25 23 22 20 18 15 12 11 8 6 5 4 3 4 5 7 7 9 10 11 12 13 14 15 15 15 15 14 12 10 9 12 14 14 14 14 13 11 11 9 8 7 7 6 6 7 7 9 10 10 10 11 11 9 8 7 6 7 6 7 8 9 10 10
23 25 27 28 28 28 29 29 29 30 30 30 30 30 30 30 30 29 28 27 27 27 26 26 26 24 22 21 19 16 13 11 9 7 6 5 4 4 6 7 8 9 10 11 11 13 14 15 16 16 15 14 13 12 12 13 13 13 12 13 13 11 10 9 8 6 7 6 5 5 5 6 9 9 9 10 10 9 8 8 7 6 5 5 7 8 9 9
23 25 27 28 29 29 30 30 29 29 30 30 30 30 31 31 31 30 29 28 28 28 27 27 27 26 24 21 19 16 14 12 11 9 6 6 5 5 7 7 8 9 10 10 10 11 14 15 16 17 15 16 16 15 14 12 10 11 11 12 15 14 12 10 8 6 6 6 4 3 4 5 6 8 8 9 9 8 8 8 8 6 5 4 6 7 7 7
24 25 26 28 29 29 30 30 29 29 30 30 31 31 31 32 31 31 30 29 29 29 29 28 27 26 24 22 20 17 15 13 11 9 8 7 6 6 6 6 7 8 9 9 9 10 13 16 17 17 16 17 17 14 12 11 9 9 8 9 13 16 14 10 6 5 5 4 3 2 3 4 4 6 7 7 8 8 7 7 8 7 5 4 4 5 6 6
24 25 26 27 28 30 31 30 29 29 30 31 32 32 32 32 32 32 31 30 30 30 29 29 28 27 26 23 21 18 16 14 12 10 9 8 7 6 6 6 6 8 8 9 9 11 15 17 17 16 15 15 14 14 14 13 11 10 9 8 9 12 12 8 5 4 4 3 3 2 3 3 3 4 5 5 7 8 7 7 8 7 6 5 4 4 4 5
25 25 26 26 28 29 31 31 29 29 29 31 32 33 33 33 33 33 31 31 31 30 30 30 29 28 26 24 21 19 18 15 13 12 11 10 8 7 6 6 7 7 8 9 10 13 17 16 14 13 14 15 15 16 16 15 13 12 11 10 8 9 9 7 5 3 3 4 2 0 2 3 3 5 5 5 7 9 9 7 7 7 6 6 6 6 5 5
25 25 25 26 27 29 31 31 29 28 29 31 33 33 34 34 34 33 32 32 31 31 30 30 29 28 27 25 23 22 20 18 16 14 13 11 10 8 7 7 7 7 9 9 11 15 16 14 12 13 15 17 17 17 17 15 14 13 13 13 12 11 10 9 8 8 8 7 5 2 1 3 6 7 7 6 8 10 10 8 7 7 6 6 7 8 8 6
26 25 25 26 27 28 31 32 30 28 29 30 32 34 34 34 34 33 33 32 32 32 30 29 29 28 27 26 25 24 22 20 18 16 15 12 11 9 7 7 8 8 9 9 11 14 14 12 12 15 16 17 18 18 17 16 15 15 15 15 15 14 13 12 11 11 10 8 7 4 3 5 7 7 8 8 9 12 12 9 8 7 7 8 9 10 10 8
27 26 26 25 26 28 31 32 30 29 28 30 32 33 34 34 34 34 33 33 32 32 31 30 29 28 28 27 26 25 24 22 20 18 16 14 11 10 9 8 8 8 9 11 12 12 12 14 15 16 18 18 19 18 18 18 17 17 17 18 18 17 16 15 13 12 10 8 8 7 7 7 6 8 10 9 9 13 14 11 9 8 9 10 11 12 11 10
28 26 26 25 25 27 30 31 31 29 28 30 31 33 34 34 35 34 34 33 33 32 31 31 30 29 29 27 26 25 24 22 21 19 16 14 12 11 10 9 9 9 10 12 13 12 13 15 16 17 19 19 19 19 19 20 19 19 20 20 20 20 19 18 15 11 9 9 10 9 10 9 8 10 11 11 9 12 15 14 10 9 10 11 12 12 12 11
28 27 26 25 25 26 29 31 31 30 29 30 31 32 33 34 35 35 34 33 32 32 32 32 31 30 29 28 27 26 24 22 21 19 17 16 14 12 11 11 11 12 12 12 14 15 14 15 16 17 18 19 20 20 21 22 21 20 20 20 21 23 22 18 14 10 10 13 12 12 14 13 11 13 14 13 10 13 16 15 12 11 12 12 12 13 13 12
29 28 27 26 24 25 27 30 31 31 30 30 30 31 32 34 35 35 35 34 33 32 32 32 31 30 30 29 29 28 26 24 21 20 18 17 15 13 13 13 12 12 12 13 15 17 16 16 17 18 19 20 22 22 22 22 21 20 19 18 18 18 17 14 12 11 13 16 14 14 17 18 16 15 15 14 11 14 18 16 14 14 13 13 14 15 15 13
28 28 28 27 24 24 26 29 31 31 31 30 30 30 32 33 35 35 35 34 33 32 32 32 32 31 30 30 29 28 28 26 24 22 20 17 16 15 15 13 11 12 13 14 17 18 18 18 19 20 21 22 23 23 22 22 20 19 18 16 13 12 11 12 13 14 18 19 17 18 20 22 19 15 14 15 12 15 18 17 16 15 15 15 15 16 17 15
28 27 28 27 25 23 25 28 30 32 32 31 30 30 31 33 35 35 34 33 33 32 32 32 32 32 31 29 28 28 28 28 26 24 21 19 18 16 15 13 11 12 13 14 16 17 18 20 21 21 22 23 24 23 23 22 20 18 17 16 13 12 13 15 16 18 21 20 19 20 22 23 19 14 14 15 14 15 17 17 17 16 16 17 16 17 18 17
27 27 28 28 26 24 25 27 29 32 32 31 31 31 31 33 34 34 33 33 32 32 32 32 32 32 31 30 29 28 28 27 26 24 22 20 18 17 15 13 12 12 12 14 15 16 18 20 21 21 20 21 22 23 22 20 19 18 16 16 15 16 17 18 18 20 21 20 20 21 22 22 17 14 14 15 14 15 17 18 18 17 17 17 17 18 19 18
27 26 27 29 27 25 25 26 29 32 33 32 32 32 32 32 33 32 32 33 33 32 34 34 33 33 32 31 31 30 29 27 26 24 22 20 20 19 18 16 15 15 14 15 16 17 19 20 20 20 19 19 19 19 16 14 15 15 15 16 17 18 19 19 19 20 19 19 19 20 21 21 17 15 16 15 15 15 17 19 20 19 19 18 18 19 19 19
26 26 27 29 28 26 25 26 29 31 33 34 33 33 33 32 31 31 32 34 33 33 35 35 35 35 34 32 32 31 30 28 28 25 23 22 22 21 20 19 17 17 17 18 19 20 21 20 19 17 17 17 15 13 13 12 11 13 15 16 17 18 19 19 19 19 18 17 18 18 19 19 17 17 16 16 16 17 18 20 21 22 21 21 20 20 20 20
25 25 26 29 29 26 25 26 29 32 33 34 34 34 33 30 29 31 33 34 34 34 35 36 36 36 35 34 33 32 31 31 30 28 26 25 24 23 21 19 17 16 17 19 20 21 21 20 18 16 16 16 13 12 13 12 11 13 14 14 15 16 18 17 18 19 19 18 19 18 18 18 18 17 16 16 17 18 19 21 23 24 24 23 22 22 22 22
24 24 26 29 29 27 25 26 30 33 34 35 36 35 32 30 30 32 34 34 35 35 34 35 36 36 36 36 35 34 34 33 31 29 28 27 26 25 23 20 19 18 17 18 20 20 19 19 18 16 16 16 15 15 14 11 10 12 11 10 11 12 13 14 16 18 19 20 20 19 18 18 18 17 16 16 16 17 18 20 22 24 24 24 24 24 24 24
23 23 25 28 29 27 25 27 31 33 34 36 36 34 32 31 31 32 34 34 35 35 35 34 36 37 36 36 36 35 34 34 32 31 30 28 27 25 24 22 20 20 19 20 21 20 18 19 19 17 17 18 18 17 16 12 11 11 9 9 9 10 11 12 14 17 18 19 20 20 19 18 17 17 17 18 18 18 18 19 21 23 24 25 25 25 26 25
23 23 25 28 29 27 25 27 32 34 35 36 36 34 33 32 32 33 34 34 35 36 35 34 35 36 36 36 36 36 35 35 34 32 31 30 28 26 24 23 21 20 21 22 24 23 20 21 22 21 20 20 20 19 17 15 14 12 11 11 11 12 12 13 14 16 16 17 18 18 18 17 16 17 19 21 20 20 19 19 21 22 24 25 26 26 26 26
22 23 25 27 28 26 25 27 32 35 36 36 35 34 34 33 33 34 34 34 35 35 35 35 35 35 36 36 36 37 37 35 34 33 32 31 28 26 24 23 20 20 22 24 25 25 22 22 23 23 22 22 22 20 17 16 15 14 14 13 13 14 14 14 16 17 17 17 17 17 17 15 15 18 21 22 22 21 21 20 21 22 23 24 26 27 27 28
23 23 25 27 27 26 25 28 31 35 36 36 34 34 34 34 34 35 35 35 35 35 36 36 35 34 35 36 37 37 37 36 35 34 33 31 28 25 24 23 20 19 22 24 25 26 25 23 24 24 24 24 23 19 16 16 16 15 15 15 14 14 15 15 15 16 16 17 17 18 17 14 13 17 21 22 21 21 21 20 20 21 21 23 25 26 27 28
24 24 25 26 26 25 25 27 30 33 35 35 35 34 34 35 35 35 36 36 35 36 36 36 36 35 35 36 37 37 37 36 36 35 34 32 29 26 25 23 21 20 22 23 24 25 25 24 24 25 25 24 22 19 17 17 18 17 16 16 15 15 15 14 14 14 15 16 16 17 16 12 12 16 20 20 20 19 19 20 20 20 21 22 24 26 27 28
24 25 25 25 25 25 25 27 29 31 34 36 36 35 36 36 35 35 36 36 36 36 36 36 36 36 36 36 36 36 35 35 35 35 34 32 30 28 26 25 23 22 22 23 23 23 23 23 24 25 25 24 22 21 19 18 18 19 19 17 16 16 15 14 14 14 14 14 14 16 16 12 11 16 19 20 19 19 19 20 21 22 22 24 25 27 28 29
25 25 24 25 25 24 25 27 28 30 33 36 37 37 37 37 36 35 35 35 36 37 37 37 37 37 36 35 35 35 34 34 33 33 33 32 31 31 29 27 26 25 24 24 24 24 24 25 25 24 24 24 23 22 21 21 21 22 20 18 17 17 17 16 16 16 15 14 14 16 16 12 13 16 18 19 19 19 20 21 22 23 24 25 26 27 28 29
26 26 25 25 24 24 24 25 26 28 31 34 38 39 39 39 37 35 34 34 36 37 38 38 37 37 37 37 36 35 35 34 33 33 34 33 33 33 32 30 28 28 26 25 24 25 25 25 25 25 25 24 24 24 23 22 22 21 19 18 18 19 18 18 18 19 16 14 16 18 16 14 16 18 18 19 20 20 21 23 24 25 26 26 26 27 28 28
27 27 26 25 24 24 24 24 25 27 29 32 37 39 40 40 39 37 35 34 35 36 37 38 39 38 37 37 37 37 36 35 34 34 34 33 33 33 32 31 30 29 27 26 26 26 27 26 25 26 26 25 23 22 19 18 19 20 19 19 20 20 20 20 20 20 18 19 21 21 19 17 17 19 20 21 21 22 23 24 25 26 27 28 28 28 28 28
28 28 27 26 25 25 25 24 24 25 27 29 34 38 41 41 40 38 36 34 35 36 37 38 39 39 38 38 38 38 37 36 35 35 34 33 32 32 33 32 31 30 28 27 27 28 29 29 28 28 28 26 23 21 20 20 23 23 21 21 21 22 22 22 23 22 22 25 25 23 24 22 18 20 23 23 23 24 24 25 26 27 28 28 29 29 29 28
29 29 28 27 27 26 25 25 24 25 25 27 30 34 39 42 41 40 38 36 36 36 37 38 40 40 40 40 38 38 38 36 35 35 34 33 32 32 34 34 32 30 29 28 28 29 29 30 30 29 29 28 26 26 26 26 26 25 23 23 24 24 24 24 25 25 26 29 28 26 28 26 21 23 26 26 26 26 25 26 26 27 28 28 29 29 29 29
30 30 29 28 28 27 26 26 25 25 25 26 27 30 35 40 42 42 41 39 38 36 36 39 41 41 41 41 41 40 39 38 37 35 34 33 31 31 34 35 34 32 31 30 30 30 29 30 31 30 30 30 30 30 30 29 28 27 26 26 27 27 27 26 27 28 29 32 32 31 31 28 24 25 27 27 28 27 27 27 27 27 29 29 29 29 29 30
30 31 30 29 29 29 28 27 26 26 25 26 27 28 31 35 40 43 43 42 40 38 37 38 41 42 42 42 42 42 41 40 38 36 35 33 31 31 32 34 34 33 32 31 31 31 30 31 32 32 32 32 32 32 31 31 30 29 29 29 30 30 29 29 31 32 34 35 36 36 34 27 24 26 28 27 28 28 28 29 28 29 30 29 29 30 30 31
30 31 31 30 30 30 29 28 28 27 26 26 27 28 29 31 35 41 44 44 43 41 40 39 39 41 43 44 43 43 42 41 39 38 36 34 32 31 31 32 33 33 33 32 32 33 32 31 33 33 33 34 34 34 33 32 32 32 32 32 33 32 31 33 35 36 37 39 40 40 35 26 23 27 28 27 28 29 29 30 30 30 30 30 30 30 31 32
32 31 31 31 31 31 30 30 29 29 28 28 28 28 29 29 31 35 40 44 44 43 42 41 40 40 42 44 45 44 43 42 40 39 38 36 35 33 32 32 32 32 33 33 34 34 34 33 34 33 34 35 35 34 34 34 34 35 34 34 34 34 35 36 37 37 39 42 42 38 33 27 26 28 28 27 28 29 30 31 31 31 31 31 31 32 32 33
33 33 32 32 32 32 31 30 30 30 30 29 29 29 29 30 30 32 35 39 42 43 44 43 43 42 41 43 44 45 45 44 42 41 40 39 38 37 35 34 33 33 33 34 34 34 34 34 33 33 33 33 34 34 33 35 36 37 35 35 35 36 38 38 38 39 42 43 41 35 30 28 28 28 28 28 29 30 31 31 32 32 31 31 31 32 33 34
Wind_Direction
224 222 221 221 221 220 219 220 221 223 225 227 227 222 217 214 212 208 203 197 192 192 199 212 233 262 291 316 332 339 343 345 343 331 319 321 294 258 242 209 178 174 174 174 177 173 166 161 161 163 163 158 149 161 109 81 83 65 50 46 44 36 32 38 46 55 56 48 45 42 39 39 46 47 41 41 47 54 60 56 55 56 58 62 66 61 54 57
227 224 222 221 221 220 220 220 221 223 225 226 227 225 220 216 214 211 208 202 197 195 200 208 220 241 271 310 334 342 348 348 342 332 320 320 278 240 222 199 179 176 180 182 182 181 174 169 167 163 163 158 156 165 125 97 76 56 49 40 34 30 22 26 39 46 49 44 41 40 39 40 44 43 40 45 54 65 65 54 52 54 57 63 65 63 57 59
228 226 224 223 221 220 220 221 221 222 224 225 225 225 222 218 215 214 211 205 200 199 202 207 213 227 249 294 334 348 355 353 343 336 333 332 215 218 208 187 181 183 186 187 187 188 182 177 171 166 165 159 166 177 148 128 81 57 53 43 30 20 4 9 37 46 50 53 52 48 47 45 42 42 41 50 63 68 65 54 50 48 51 63 68 67 64 63
228 227 226 224 222 221 221 221 222 222 223 224 224 224 223 220 216 215 212 207 203 202 204 207 211 219 229 262 320 348 354 355 348 342 347 7 204 206 194 184 186 189 190 190 193 195 190 184 175 172 172 167 177 178 158 168 194 211 36 41 31 8 343 351 39 49 61 69 61 53 50 46 41 40 39 44 55 60 58 50 48 46 46 61 72 71 66 62
228 228 227 226 224 222 222 222 223 223 223 223 223 223 223 221 217 215 213 208 204 204 205 208 211 216 218 233 291 336 348 350 348 345 350 333 215 188 178 184 189 193 192 191 195 198 194 187 182 183 181 179 188 178 162 177 203 224 330 17 353 342 331 1 50 58 76 72 63 56 51 45 37 33 30 31 42 52 53 46 44 46 48 58 76 82 72 61
228 228 228 227 226 224 223 223 223 223 223 223 222 221 222 221 217 215 214 209 206 205 206 209 212 215 213 211 249 327 345 345 346 345 342 333 189 152 169 183 193 196 194 192 193 193 190 189 190 192 191 190 193 180 172 184 193 209 242 322 308 309 356 82 73 82 80 73 68 59 52 42 31 27 22 22 38 52 55 49 43 42 43 48 69 95 93 75
227 228 228 227 227 225 224 224 224 224 224 222 221 221 221 220 218 216 215 211 208 206 206 208 212 214 209 206 227 306 346 343 344 342 336 339 100 144 168 181 185 192 196 191 181 181 188 191 194 193 199 205 200 186 177 183 174 184 222 257 254 225 105 90 85 91 81 74 69 60 52 42 30 29 27 30 44 52 57 53 43 37 35 36 44 78 117 126
226 227 228 227 227 226 224 224 224 223 224 223 221 220 220 219 217 215 216 213 210 207 207 208 212 214 208 206 223 265 328 338 341 338 335 337 109 146 162 172 173 182 191 183 165 172 184 189 195 194 201 216 218 204 179 175 163 168 212 230 211 173 109 104 108 90 81 74 66 57 52 45 37 38 40 45 47 47 52 50 45 41 39 38 35 44 77 111
227 225 227 227 226 225 225 224 224 222 223 222 221 220 218 218 217 215 216 215 212 209 207 208 211 213 209 206 218 241 288 327 335 334 334 333 270 157 161 166 167 172 175 169 161 170 179 184 194 197 205 220 234 221 178 161 169 174 204 213 198 154 120 116 110 89 80 73 65 55 48 45 46 45 44 45 45 48 52 51 50 49 46 45 44 48 57 66
229 226 226 226 226 225 224 224 223 222 221 221 221 220 217 217 216 214 216 216 213 210 208 208 210 211 209 207 214 229 251 303 323 324 328 326 252 176 173 166 161 162 160 160 167 174 177 181 192 199 211 223 234 205 170 161 185 192 201 215 208 156 138 130 115 91 78 75 67 56 47 45 47 42 37 37 42 46 51 55 57 58 56 53 56 60 62 64
232 228 225 225 224 224 224 224 223 221 220 219 219 218 217 216 215 214 215 216 213 210 208 208 211 212 210 209 213 220 235 268 300 304 299 282 220 187 184 168 156 156 154 160 171 175 175 180 188 200 216 225 229 192 166 166 187 192 203 220 216 167 152 155 143 106 78 75 68 58 48 48 47 37 32 33 36 39 47 58 63 64 64 64 66 66 63 62
234 230 227 224 222 222 223 224 223 221 219 217 217 216 216 215 215 213 214 216 213 210 208 207 210 213 212 211 214 218 226 244 270 287 283 273 236 198 192 171 154 153 155 163 172 174 177 182 185 201 217 219 216 189 165 169 180 186 200 212 211 175 160 161 151 132 88 74 68 60 48 48 48 38 33 35 34 37 52 61 66 67 68 71 73 72 66 60
236 232 229 224 221 220 222 224 223 221 219 216 215 214 214 214 213 212 213 215 212 209 207 206 208 211 213 213 217 221 222 232 247 275 276 268 252 211 195 177 162 158 162 169 174 177 180 184 187 199 210 208 202 181 163 171 177 183 190 189 191 183 173 163 152 141 118 76 69 66 50 46 48 41 36 38 36 37 55 59 60 62 65 71 74 74 71 64
237 233 230 226 220 218 220 223 223 221 218 216 214 212 212 212 211 210 212 214 212 209 207 205 206 209 211 213 218 221 220 229 234 253 268 258 249 220 199 185 175 169 170 175 178 181 185 188 190 196 204 203 192 170 165 176 176 182 187 177 174 182 181 171 160 134 118 93 75 74 55 45 46 41 35 34 36 33 46 55 55 56 60 68 72 72 71 69
238 235 231 227 221 217 217 220 222 221 218 215 212 210 210 210 209 208 210 212 211 209 206 204 205 207 209 211 217 217 219 227 228 231 243 244 248 231 206 191 185 179 176 180 183 186 191 193 192 194 199 200 189 170 171 181 179 180 182 175 175 179 179 173 165 135 110 98 83 78 61 46 42 40 33 27 29 26 30 50 56 55 58 63 68 69 69 69
238 236 233 229 222 217 215 217 219 220 218 214 211 209 209 209 208 207 209 210 209 207 206 203 203 205 208 211 215 216 219 224 224 225 229 233 240 236 212 192 189 187 183 187 191 192 197 199 195 193 194 196 193 180 176 180 179 177 171 170 178 180 179 175 167 147 118 103 87 74 60 47 38 37 34 23 22 19 13 39 57 58 59 63 66 67 66 65
236 236 234 230 223 218 215 214 215 219 217 214 211 208 208 208 207 206 208 209 207 206 205 202 201 203 205 209 213 215 218 222 223 225 223 222 225 223 203 189 189 190 191 195 198 199 203 204 197 190 189 193 197 192 181 178 178 178 175 176 182 184 182 176 171 154 120 102 86 70 53 44 36 33 32 23 15 11 4 20 51 60 62 65 65 62 58 55
232 234 234 231 225 219 216 212 211 215 216 214 211 208 208 207 206 206 207 208 206 205 204 201 200 201 203 206 209 212 216 219 222 221 218 211 207 206 195 189 190 192 195 198 201 203 204 203 193 186 187 191 198 198 186 182 182 182 186 190 194 196 192 186 181 162 130 113 91 70 50 37 33 30 27 18 7 360 355 358 27 52 61 66 65 60 54 48
229 231 233 232 227 221 218 213 209 210 213 213 211 209 208 207 206 205 206 206 205 203 202 201 200 200 202 204 206 210 213 216 218 221 221 209 199 200 195 190 189 191 192 192 197 200 199 199 190 184 186 186 192 198 197 199 194 181 182 195 200 198 197 198 197 173 147 139 115 81 54 33 32 33 24 13 360 351 344 341 355 23 42 58 59 55 50 43
227 227 229 231 228 224 220 215 208 206 209 211 210 209 209 208 206 204 204 204 204 202 200 199 200 199 200 202 204 207 210 213 216 219 216 205 204 207 197 188 185 186 186 184 188 193 196 194 186 182 183 185 191 202 210 215 204 185 179 188 195 198 203 211 212 186 161 151 132 99 61 37 37 41 29 9 354 343 334 328 334 351 5 29 42 42 38 31
226 225 225 228 228 226 222 216 210 205 205 207 209 210 209 208 205 203 202 202 202 202 199 198 199 199 199 200 202 203 207 211 215 218 214 206 210 209 196 188 183 181 179 179 182 189 193 190 187 187 188 192 199 206 210 213 213 209 204 195 193 198 205 211 206 181 174 173 154 126 70 54 50 46 30 4 344 332 320 314 319 328 332 345 13 24 20 12
226 223 223 224 226 226 223 218 211 205 202 204 208 210 209 207 205 203 201 200 200 201 200 197 197 198 198 199 201 202 204 207 212 216 214 209 210 205 197 191 184 180 174 178 185 188 189 192 197 198 194 199 205 204 205 215 228 233 231 224 203 197 200 202 193 164 168 190 168 120 73 73 55 26 14 348 327 314 301 297 304 311 313 315 331 351 352 347
227 223 221 220 222 224 224 219 212 206 202 203 205 209 209 208 206 203 200 198 199 199 199 198 197 197 197 196 197 198 199 201 205 210 211 210 207 202 199 187 180 179 175 182 190 188 192 202 207 202 196 200 206 209 216 227 236 237 233 231 224 213 207 209 223 225 224 229 228 76 65 55 347 332 330 315 304 295 286 284 291 295 298 303 313 322 325 329
229 223 220 219 218 221 223 220 214 208 205 203 203 206 208 208 206 203 200 198 198 198 199 199 198 197 196 195 195 195 196 198 202 206 208 210 205 200 195 182 176 178 178 184 191 194 201 212 211 203 203 208 215 223 230 232 230 235 236 230 229 227 222 222 232 242 247 254 266 273 16 353 325 318 312 299 287 279 275 273 278 283 288 293 301 309 315 325
231 224 220 218 216 218 221 221 216 211 207 204 202 203 206 207 206 204 201 199 198 197 197 197 197 197 197 197 196 196 197 199 201 203 203 202 199 196 194 184 177 180 179 184 196 205 212 216 211 209 212 218 225 231 236 234 229 233 238 237 235 233 234 239 240 239 245 256 265 270 311 319 317 323 321 306 277 268 268 264 267 277 286 291 294 299 307 321
233 226 221 218 215 216 219 220 217 213 210 206 202 201 203 205 205 204 201 200 199 198 196 196 196 197 197 197 197 198 200 200 200 202 203 203 199 196 196 186 178 181 180 186 201 210 213 215 214 215 219 225 232 237 240 241 237 236 238 240 239 236 240 250 248 241 244 255 262 276 293 293 306 324 328 321 283 265 266 262 260 269 277 287 291 294 303 315
234 229 222 218 216 214 216 218 217 214 212 209 203 200 201 202 204 203 201 201 200 198 196 196 196 197 197 196 197 199 203 204 204 204 202 200 198 196 197 186 176 185 188 191 203 209 210 216 219 221 226 233 240 244 246 248 246 242 241 241 239 237 243 250 251 247 251 260 266 283 289 281 295 310 318 324 294 262 264 266 264 263 267 280 290 293 299 310
235 231 224 219 217 214 213 215 215 214 213 210 204 201 199 200 201 202 201 202 201 198 197 197 197 198 198 197 196 198 201 204 206 205 201 198 198 196 194 189 182 188 192 193 205 211 210 217 223 226 232 238 243 246 248 251 251 250 248 243 237 236 241 247 253 256 259 263 269 283 284 278 287 296 304 317 297 256 260 271 273 267 264 277 289 291 294 302
236 232 226 221 218 215 213 213 214 214 213 211 205 202 199 198 199 201 201 202 201 199 198 198 197 198 198 198 198 198 199 200 202 203 202 201 201 198 199 198 189 189 193 194 205 214 216 220 226 230 233 237 242 245 249 252 254 256 257 253 245 243 245 248 254 259 257 260 266 274 278 278 282 287 296 313 299 257 259 272 278 271 267 276 286 288 289 295
238 234 229 223 220 218 214 211 212 213 213 211 206 202 199 197 198 199 200 201 202 200 199 199 198 198 199 200 200 200 200 200 200 201 200 201 200 201 207 204 188 187 195 198 206 214 219 225 230 234 237 241 244 246 249 252 253 255 257 258 257 256 254 254 257 260 258 263 269 271 275 276 276 281 292 306 300 266 259 267 272 270 270 277 282 283 285 291
239 236 231 226 223 221 217 211 210 212 213 212 207 202 199 197 197 198 198 200 201 201 200 200 200 199 199 201 201 202 203 203 203 203 202 203 204 206 213 208 189 190 199 205 211 215 219 227 234 238 242 245 247 247 245 246 246 246 246 248 250 251 255 258 260 263 265 271 274 273 275 274 271 280 292 300 298 274 260 259 261 264 269 273 276 278 283 290
240 237 232 228 225 224 221 212 208 210 212 212 208 203 199 198 197 196 197 199 200 201 201 200 200 199 199 200 201 202 206 207 207 206 205 206 210 214 217 211 197 196 203 209 215 218 220 226 231 235 239 241 241 239 237 238 237 235 236 238 239 243 251 257 261 266 272 277 276 273 273 270 269 280 289 293 288 272 262 257 255 260 265 267 271 276 281 287
241 239 234 229 226 226 223 214 208 209 211 211 209 204 200 198 196 194 196 199 200 200 201 201 200 199 199 200 201 203 205 207 209 209 209 211 215 217 216 213 207 202 204 213 219 222 224 227 229 231 233 234 231 226 225 229 230 229 230 233 236 241 249 258 266 271 276 279 278 276 274 273 277 286 289 288 277 264 261 259 255 258 262 263 268 275 280 284
241 239 235 230 227 227 225 217 210 208 209 211 211 207 201 197 194 194 196 199 200 200 202 202 201 200 199 200 202 204 205 207 209 209 212 215 217 219 219 219 218 209 206 213 219 223 225 228 232 232 230 229 224 216 214 222 231 235 236 239 244 250 256 264 271 276 279 279 278 278 278 280 287 290 288 284 271 260 259 260 258 258 260 263 269 275 279 282
239 237 234 230 228 228 226 220 213 208 208 210 211 209 203 195 193 195 197 200 200 201 203 203 203 202 201 201 203 204 205 208 209 209 211 215 217 220 223 225 227 223 217 217 222 225 225 227 230 229 222 216 209 211 219 226 239 247 251 255 258 260 264 268 272 276 278 277 277 277 280 283 286 288 286 280 271 263 261 261 261 259 260 265 270 275 278 281
236 234 232 229 227 228 228 223 216 210 207 208 211 210 203 196 196 198 199 200 201 202 203 204 204 205 205 205 206 206 207 209 210 210 212 215 215 218 221 223 226 228 227 225 227 228 227 228 230 225 219 213 207 215 227 233 245 255 262 265 261 261 267 271 272 273 274 275 275 276 277 279 282 286 286 281 277 274 270 267 264 262 262 266 271 274 278 280
233 230 228 227 226 228 230 226 219 212 208 208 209 209 204 199 199 200 200 201 202 203 203 203 205 207 208 209 210 210 210 211 212 211 213 216 218 219 222 224 226 227 226 224 225 226 221 222 226 222 219 222 223 226 233 239 250 259 261 256 255 262 269 272 273 273 273 272 272 273 274 276 279 283 285 286 286 286 284 279 273 268 266 267 270 273 276 280
233 227 225 225 225 229 233 230 222 214 209 208 207 206 204 202 202 203 202 202 203 204 204 203 205 208 209 211 212 213 214 215 215 214 215 218 220 222 224 227 228 227 225 223 221 219 213 213 219 218 216 223 230 232 236 242 248 250 247 247 252 258 264 271 275 276 275 274 271 270 271 272 276 279 280 283 286 290 292 288 282 275 271 269 270 272 275 280
232 225 223 223 224 229 234 232 225 218 211 207 205 204 204 204 205 206 205 204 205 205 205 205 205 207 209 211 213 215 217 218 219 218 219 220 221 221 223 225 226 224 222 221 218 216 211 209 215 219 219 224 231 235 237 241 243 245 248 252 254 259 265 271 275 276 276 275 271 268 268 272 276 275 275 278 283 289 293 291 287 281 275 272 271 272 275 280
231 225 222 223 224 229 234 233 229 222 214 208 204 202 203 204 207 209 208 207 207 207 206 206 205 206 209 211 213 217 219 219 220 220 221 222 220 220 222 224 224 221 218 218 216 214 212 208 211 219 223 227 233 240 244 242 243 250 258 262 265 272 278 280 279 276 273 272 273 272 271 275 280 277 276 278 282 288 292 293 290 286 280 276 274 274 277 281
231 226 223 223 225 229 233 233 231 225 217 209 203 201 201 203 208 211 210 210 210 210 208 207 207 207 209 212 214 217 220 221 222 222 223 222 218 216 220 222 220 219 217 216 216 215 214 210 209 215 224 232 238 245 246 243 246 253 261 266 273 283 289 290 288 284 279 276 278 278 276 278 286 283 278 278 282 287 290 290 289 287 285 282 280 279 280 281
231 227 225 224 226 229 232 232 231 227 220 211 204 201 200 202 206 211 212 212 212 212 211 209 209 209 211 214 216 218 221 222 223 223 223 222 217 213 216 218 217 217 218 216 215 216 217 215 212 213 221 229 236 242 244 243 247 253 259 267 277 285 291 295 296 296 293 289 288 284 278 276 283 282 279 280 283 285 285 285 284 284 283 282 281 280 279 277
232 228 225 224 226 229 231 231 230 227 222 214 207 202 200 200 204 210 213 213 213 213 212 211 211 211 213 215 218 220 222 223 223 223 222 221 217 213 212 214 215 217 218 217 214 214 215 215 214 215 219 226 232 236 239 241 246 254 263 272 280 285 289 295 298 298 297 298 297 290 282 281 283 280 280 282 283 285 287 287 287 287 285 283 280 277 275 274
234 230 226 224 226 227 230 230 228 226 223 217 210 205 202 201 203 208 213 214 214 213 213 213 212 212 214 216 218 220 222 222 222 223 223 221 218 215 212 212 215 217 218 219 218 218 219 218 216 218 221 224 229 232 237 245 255 263 269 273 275 278 284 291 295 294 294 298 297 292 289 290 286 282 283 285 287 290 292 291 291 291 289 287 283 278 276 276
234 232 228 225 225 225 228 228 226 225 224 220 215 209 205 203 204 208 211 214 216 215 213 213 213 213 213 215 217 219 221 222 222 223 224 222 220 218 213 211 213 215 216 220 222 223 225 224 223 224 227 229 234 243 254 263 267 266 265 266 269 274 280 285 287 290 294 296 294 293 295 292 287 288 290 290 293 295 294 294 293 291 289 287 284 282 280 279
233 233 230 228 226 225 226 227 226 225 224 222 219 214 209 206 206 208 210 213 216 216 214 214 214 213 213 214 216 218 220 221 223 224 225 224 223 219 213 209 211 211 213 219 224 225 227 227 227 230 234 239 245 254 260 261 260 259 260 264 268 274 278 281 285 289 294 294 293 296 299 295 291 294 294 294 295 294 293 293 291 288 286 284 282 281 280 278
232 233 231 229 228 226 225 225 225 224 223 222 221 218 214 210 208 209 211 213 215 216 214 214 215 214 214 215 215 217 220 222 224 226 227 228 226 221 214 210 211 212 213 218 224 227 228 230 231 232 235 238 240 243 245 248 254 259 262 265 268 272 276 280 287 291 295 295 296 300 300 297 296 296 294 293 293 292 291 290 288 286 284 281 280 279 278 278
231 232 231 230 229 228 226 225 225 224 222 222 221 220 218 214 211 211 213 214 215 215 214 215 216 215 215 216 217 219 220 223 225 227 229 230 228 223 217 215 215 216 217 220 224 227 229 231 233 234 235 237 238 241 244 249 255 261 265 267 269 272 275 282 289 293 294 296 298 300 298 298 300 295 290 289 289 289 289 288 287 286 284 282 280 279 279 280
231 231 231 230 230 229 227 226 225 224 222 221 221 221 220 218 215 214 215 215 215 216 215 216 217 217 217 218 219 221 222 224 226 228 229 230 228 224 220 220 221 223 223 225 228 230 231 234 237 237 238 239 241 244 247 251 257 262 266 269 270 273 278 284 289 292 294 296 299 299 297 300 300 291 286 285 285 286 286 286 285 284 283 282 280 279 279 280
230 231 230 230 230 230 228 226 225 223 222 221 221 220 220 220 218 217 218 217 217 217 217 217 219 219 220 220 221 223 224 225 226 229 230 230 229 227 224 224 227 229 230 231 234 236 237 239 243 243 242 243 245 247 251 255 259 263 266 270 273 276 280 283 286 289 293 296 297 297 299 301 295 286 283 284 283 283 283 283 283 283 282 281 280 279 278 278
229 231 230 230 229 229 229 227 226 224 222 220 220 220 220 220 219 218 220 220 219 219 219 219 220 221 221 223 224 224 226 227 228 229 231 231 230 230 230 231 233 236 237 237 239 240 241 243 246 248 247 248 249 251 255 258 261 263 265 268 272 275 277 279 284 289 292 294 294 296 299 299 292 285 284 284 282 282 282 283 284 284 282 281 280 280 278 278
227 229 230 230 229 229 228 228 227 226 224 222 221 220 220 220 220 219 220 222 222 221 221 221 222 223 223 225 226 227 228 229 229 230 231 232 231 232 234 235 238 240 242 243 245 246 246 246 248 249 250 252 253 254 256 258 260 262 265 268 271 273 275 279 285 290 291 292 293 295 296 293 290 288 286 283 282 283 284 285 285 283 282 280 279 278 278 278
Height
5895 5896 5898 5899 5901 5903 5904 5905 5906 5907 5908 5909 5910 5911 5912 5912 5913 5914 5915 5915 5916 5916 5916 5917 5917 5917 5917 5917 5916 5916 5916 5915 5915 5914 5914 5914 5914 5914 5915 5915 5916 5918 5919 5919 5920 5920 5921 5922 5923 5924 5926 5926 5927 5928 5928 5930 5931 5932 5932 5933 5934 5934 5934 5934 5933 5932 5932 5931 5931 5931 5930 5930 5929 5928 5928 5929 5929 5929 5929 5929 5929 5929 5929 5928 5928 5927 5928 5928
5893 5894 5896 5897 5899 5901 5902 5904 5905 5906 5907 5908 5909 5910 5911 5912 5912 5913 5914 5915 5915 5916 5916 5917 5917 5917 5917 5917 5917 5917 5916 5916 5915 5914 5914 5914 5914 5914 5914 5915 5916 5917 5918 5919 5920 5920 5921 5922 5923 5925 5926 5927 5928 5928 5929 5930 5931 5932 5933 5933 5934 5934 5934 5934 5933 5933 5932 5932 5932 5931 5931 5930 5929 5928 5929 5929 5929 5929 5929 5929 5929 5929 5929 5929 5928 5928 5928 5929
5890 5892 5893 5895 5897 5899 5900 5902 5903 5904 5905 5906 5907 5909 5910 5911 5912 5913 5913 5914 5915 5915 5916 5916 5917 5917 5917 5917 5917 5917 5917 5916 5915 5914 5914 5914 5914 5914 5914 5915 5916 5916 5918 5919 5920 5921 5921 5922 5924 5925 5926 5927 5928 5929 5930 5931 5932 5933 5933 5934 5934 5935 5934 5934 5934 5933 5933 5932 5932 5931 5931 5930 5929 5928 5929 5929 5929 5929 5929 5930 5930 5930 5930 5929 5929 5929 5929 5929
5888 5889 5891 5893 5895 5896 5898 5900 5901 5902 5904 5905 5906 5907 5908 5910 5911 5912 5913 5913 5914 5915 5915 5916 5917 5917 5917 5918 5917 5917 5917 5916 5915 5914 5914 5914 5914 5914 5914 5915 5915 5916 5917 5919 5920 5921 5922 5923 5924 5925 5926 5928 5928 5929 5930 5931 5932 5933 5934 5934 5935 5935 5934 5934 5934 5934 5933 5933 5932 5931 5930 5930 5929 5929 5929 5929 5929 5929 5929 5929 5930 5930 5930 5930 5930 5929 5929 5930
5885 5887 5889 5890 5892 5894 5896 5897 5899 5900 5902 5903 5905 5906 5907 5908 5909 5911 5912 5912 5913 5914 5915 5915 5916 5917 5917 5917 5917 5917 5917 5916 5915 5915 5914 5914 5914 5914 5914 5915 5915 5916 5917 5918 5920 5921 5922 5923 5924 5925 5927 5928 5928 5930 5931 5932 5933 5933 5934 5935 5935 5935 5935 5935 5935 5935 5934 5933 5932 5931 5931 5930 5930 5930 5929 5929 5929 5929 5929 5929 5929 5930 5931 5931 5930 5930 5930 5930
5883 5884 5886 5888 5890 5892 5894 5895 5897 5898 5900 5901 5903 5904 5905 5907 5908 5909 5910 5911 5912 5913 5914 5915 5916 5916 5917 5917 5917 5917 5917 5916 5915 5915 5914 5914 5914 5914 5914 5915 5915 5916 5917 5918 5920 5921 5922 5924 5925 5926 5927 5928 5929 5930 5931 5932 5933 5934 5935 5935 5936 5936 5936 5935 5935 5936 5934 5932 5931 5932 5931 5931 5931 5930 5929 5929 5929 5928 5928 5929 5929 5930 5930 5931 5930 5930 5930 5930
5880 5882 5884 5886 5888 5890 5892 5893 5894 5896 5898 5899 5901 5902 5904 5905 5907 5908 5909 5910 5911 5912 5913 5914 5915 5916 5916 5917 5917 5917 5916 5916 5915 5915 5914 5914 5914 5914 5914 5914 5915 5916 5916 5918 5920 5921 5923 5924 5925 5926 5927 5928 5929 5930 5931 5932 5934 5934 5935 5936 5936 5936 5936 5936 5936 5936 5934 5932 5932 5932 5931 5931 5931 5930 5929 5929 5929 5928 5928 5928 5929 5929 5930 5930 5930 5930 5930 5930
5877 5879 5881 5883 5885 5887 5889 5891 5892 5894 5895 5897 5899 5900 5902 5904 5905 5906 5908 5909 5910 5911 5912 5913 5914 5915 5916 5916 5916 5916 5916 5916 5915 5915 5914 5914 5914 5914 5914 5914 5915 5915 5916 5918 5920 5921 5923 5924 5925 5926 5927 5927 5929 5930 5931 5932 5934 5935 5936 5936 5937 5936 5936 5935 5936 5936 5934 5932 5932 5932 5932 5931 5931 5930 5929 5929 5929 5929 5928 5928 5928 5929 5929 5930 5930 5930 5930 5930
5875 5876 5878 5880 5883 5885 5887 5888 5890 5891 5893 5895 5897 5898 5900 5902 5903 5905 5906 5907 5908 5909 5911 5912 5913 5914 5915 5915 5916 5916 5916 5916 5915 5915 5914 5914 5914 5914 5914 5914 5915 5915 5916 5918 5920 5921 5922 5923 5924 5925 5926 5927 5928 5930 5931 5933 5934 5935 5936 5937 5937 5936 5935 5935 5936 5935 5933 5933 5933 5932 5932 5931 5930 5930 5929 5929 5929 5929 5928 5928 5928 5929 5929 5929 5930 5930 5929 5930
5872 5874 5875 5878 5880 5882 5884 5886 5887 5889 5891 5893 5895 5896 5898 5900 5901 5903 5904 5906 5907 5908 5909 5911 5912 5913 5914 5914 5915 5915 5915 5915 5915 5914 5914 5914 5914 5914 5914 5914 5915 5915 5916 5918 5919 5920 5922 5923 5924 5925 5926 5927 5928 5930 5931 5933 5934 5935 5936 5937 5937 5936 5935 5935 5936 5935 5934 5933 5933 5933 5932 5931 5930 5930 5930 5930 5929 5929 5929 5928 5929 5929 5929 5930 5929 5929 5929 5929
5870 5871 5873 5875 5878 5880 5882 5883 5885 5887 5889 5891 5892 5894 5896 5898 5900 5901 5903 5904 5905 5907 5908 5909 5911 5912 5913 5913 5914 5914 5914 5915 5915 5914 5914 5914 5913 5914 5914 5914 5915 5916 5916 5917 5919 5920 5921 5923 5924 5925 5926 5927 5928 5930 5931 5933 5934 5935 5936 5937 5936 5936 5935 5935 5935 5935 5934 5934 5933 5933 5933 5932 5931 5930 5931 5931 5930 5930 5929 5929 5929 5929 5930 5930 5929 5929 5929 5929
5868 5869 5870 5872 5875 5877 5879 5880 5882 5884 5886 5888 5890 5892 5894 5896 5898 5900 5901 5902 5904 5905 5906 5908 5909 5911 5912 5912 5913 5913 5914 5914 5914 5914 5914 5913 5913 5913 5914 5914 5915 5916 5917 5918 5919 5920 5921 5922 5923 5924 5925 5927 5928 5930 5931 5932 5933 5935 5936 5936 5936 5936 5935 5936 5935 5935 5935 5934 5933 5933 5933 5932 5932 5932 5932 5932 5932 5931 5930 5930 5930 5930 5930 5930 5929 5929 5929 5929
5865 5866 5868 5870 5872 5874 5876 5878 5880 5882 5884 5886 5887 5889 5891 5893 5896 5898 5899 5901 5902 5903 5905 5906 5908 5909 5911 5911 5912 5913 5913 5913 5913 5913 5913 5913 5913 5913 5913 5914 5915 5916 5917 5918 5919 5920 5921 5922 5923 5924 5925 5926 5928 5930 5931 5932 5933 5934 5935 5936 5936 5936 5936 5936 5936 5935 5935 5935 5934 5934 5934 5934 5933 5933 5934 5933 5933 5933 5931 5930 5930 5930 5930 5930 5930 5929 5929 5929
5863 5864 5865 5867 5870 5872 5873 5875 5877 5879 5881 5883 5885 5887 5889 5891 5893 5895 5897 5899 5900 5902 5903 5905 5906 5908 5909 5910 5911 5912 5912 5913 5913 5913 5913 5913 5913 5913 5913 5914 5915 5916 5917 5918 5919 5920 5921 5922 5923 5924 5925 5926 5927 5929 5930 5932 5933 5934 5935 5936 5936 5936 5936 5936 5936 5935 5935 5935 5935 5935 5935 5935 5934 5934 5934 5934 5934 5934 5932 5930 5930 5930 5930 5930 5930 5930 5930 5930
5861 5862 5863 5865 5867 5869 5870 5872 5874 5877 5879 5881 5883 5884 5886 5888 5891 5893 5895 5897 5898 5900 5901 5903 5905 5906 5908 5909 5910 5911 5912 5912 5912 5912 5912 5912 5912 5912 5913 5914 5915 5916 5917 5918 5918 5919 5920 5922 5923 5924 5924 5925 5926 5928 5930 5931 5932 5934 5935 5935 5935 5936 5936 5936 5936 5935 5936 5936 5936 5935 5936 5935 5935 5934 5934 5935 5935 5935 5933 5931 5931 5930 5930 5930 5930 5930 5930 5931
5858 5859 5861 5862 5864 5866 5867 5869 5871 5874 5876 5878 5880 5882 5884 5886 5888 5891 5893 5894 5896 5898 5899 5901 5903 5905 5906 5907 5909 5910 5911 5911 5911 5912 5912 5912 5912 5912 5913 5913 5914 5915 5916 5917 5918 5919 5920 5921 5922 5923 5924 5924 5925 5927 5929 5931 5932 5934 5935 5936 5936 5936 5936 5936 5936 5936 5936 5936 5936 5936 5936 5936 5935 5935 5935 5935 5935 5935 5934 5933 5932 5931 5931 5931 5931 5931 5931 5931
5855 5857 5858 5860 5862 5864 5865 5866 5868 5871 5874 5876 5878 5880 5881 5883 5886 5888 5890 5892 5894 5896 5897 5899 5901 5903 5904 5906 5907 5909 5910 5910 5911 5911 5911 5911 5911 5912 5912 5913 5914 5915 5916 5917 5917 5918 5919 5920 5921 5922 5923 5923 5924 5926 5928 5930 5932 5934 5935 5935 5936 5936 5936 5935 5936 5936 5936 5936 5936 5937 5937 5936 5936 5935 5935 5935 5935 5935 5935 5934 5933 5932 5932 5931 5931 5931 5931 5930
5852 5854 5856 5858 5859 5861 5862 5863 5865 5868 5871 5873 5875 5877 5879 5881 5883 5886 5888 5890 5892 5894 5895 5897 5899 5901 5903 5904 5906 5907 5909 5909 5910 5910 5910 5911 5911 5911 5912 5912 5913 5914 5915 5916 5917 5918 5918 5919 5920 5921 5922 5922 5923 5925 5927 5930 5932 5934 5935 5935 5936 5936 5935 5935 5935 5936 5936 5936 5936 5937 5937 5937 5936 5935 5935 5935 5935 5935 5935 5935 5934 5933 5933 5932 5931 5931 5931 5930
5849 5851 5853 5855 5857 5859 5860 5861 5862 5865 5868 5871 5873 5875 5877 5878 5881 5883 5886 5888 5890 5891 5893 5895 5897 5899 5901 5903 5904 5906 5907 5908 5909 5909 5909 5910 5910 5910 5911 5912 5912 5913 5914 5915 5916 5917 5918 5919 5920 5921 5921 5922 5923 5925 5927 5929 5932 5934 5935 5935 5935 5935 5935 5935 5935 5935 5935 5936 5936 5937 5937 5937 5936 5935 5935 5935 5935 5935 5935 5934 5933 5933 5933 5932 5931 5931 5931 5931
5846 5848 5850 5853 5855 5856 5858 5858 5860 5862 5865 5868 5870 5873 5874 5876 5878 5881 5883 5885 5887 5889 5891 5893 5895 5897 5899 5901 5903 5904 5906 5907 5908 5908 5909 5909 5909 5910 5910 5911 5911 5912 5913 5914 5915 5916 5917 5918 5919 5920 5921 5922 5923 5925 5926 5928 5930 5932 5934 5934 5934 5934 5934 5934 5934 5935 5935 5935 5936 5936 5937 5937 5936 5936 5935 5935 5935 5935 5934 5934 5933 5932 5932 5932 5931 5931 5930 5930
5843 5845 5847 5850 5852 5854 5855 5856 5857 5859 5861 5865 5867 5870 5872 5874 5876 5878 5880 5883 5885 5887 5889 5891 5893 5895 5897 5899 5901 5903 5904 5906 5907 5907 5908 5908 5908 5909 5909 5910 5910 5911 5912 5913 5914 5915 5916 5917 5918 5919 5920 5922 5923 5925 5926 5927 5928 5929 5931 5933 5934 5934 5934 5934 5934 5934 5935 5935 5936 5936 5936 5936 5936 5936 5935 5935 5935 5935 5934 5934 5933 5932 5932 5931 5931 5931 5930 5930
5841 5842 5844 5846 5849 5852 5853 5854 5855 5856 5858 5861 5864 5867 5869 5871 5873 5875 5878 5881 5883 5885 5887 5889 5891 5893 5895 5897 5899 5901 5903 5904 5906 5906 5907 5907 5907 5907 5908 5908 5909 5910 5911 5912 5913 5915 5916 5916 5917 5918 5920 5922 5923 5925 5926 5927 5928 5928 5929 5931 5932 5933 5934 5934 5934 5934 5934 5935 5935 5935 5935 5936 5936 5936 5935 5935 5935 5934 5934 5934 5933 5932 5931 5931 5931 5931 5930 5930
5838 5839 5841 5843 5846 5849 5851 5852 5853 5854 5856 5858 5861 5864 5867 5869 5871 5873 5876 5878 5881 5883 5885 5887 5889 5891 5893 5895 5897 5899 5901 5903 5904 5905 5905 5906 5906 5906 5907 5907 5908 5909 5910 5911 5913 5914 5915 5915 5917 5919 5921 5922 5924 5925 5926 5927 5928 5928 5929 5929 5931 5932 5933 5933 5934 5934 5934 5935 5935 5935 5935 5935 5935 5935 5935 5935 5934 5934 5933 5933 5933 5932 5931 5930 5930 5930 5930 5930
5836 5837 5838 5840 5843 5846 5848 5850 5852 5852 5853 5855 5857 5861 5864 5867 5869 5871 5873 5876 5878 5881 5883 5885 5887 5889 5891 5893 5895 5897 5899 5901 5902 5903 5904 5905 5905 5905 5906 5906 5907 5908 5910 5911 5912 5913 5914 5915 5917 5919 5920 5922 5923 5924 5925 5926 5927 5928 5928 5929 5930 5931 5932 5933 5933 5933 5934 5934 5934 5934 5934 5934 5934 5934 5934 5934 5933 5933 5932 5932 5932 5932 5931 5930 5929 5929 5929 5929
5833 5834 5835 5837 5839 5842 5845 5848 5850 5851 5851 5852 5854 5857 5861 5864 5866 5869 5871 5873 5876 5878 5881 5883 5885 5887 5889 5891 5893 5895 5897 5898 5900 5901 5902 5903 5904 5904 5905 5906 5907 5908 5909 5911 5912 5912 5914 5916 5917 5919 5920 5921 5922 5923 5924 5925 5926 5927 5928 5929 5930 5931 5931 5932 5932 5932 5933 5933 5933 5932 5932 5933 5933 5933 5933 5932 5932 5931 5931 5931 5931 5931 5930 5929 5928 5928 5928 5928
5831 5832 5833 5834 5836 5839 5842 5845 5848 5849 5849 5850 5852 5855 5858 5861 5864 5866 5869 5871 5874 5876 5879 5881 5883 5885 5887 5889 5891 5893 5894 5896 5898 5899 5901 5901 5902 5903 5904 5905 5906 5907 5908 5910 5911 5912 5914 5915 5917 5918 5919 5920 5921 5922 5923 5924 5925 5926 5927 5928 5929 5930 5930 5931 5931 5931 5931 5931 5931 5931 5931 5932 5932 5932 5931 5931 5930 5930 5929 5929 5930 5930 5929 5928 5928 5927 5927 5927
5829 5830 5831 5832 5833 5836 5839 5842 5845 5847 5847 5848 5850 5852 5855 5858 5861 5864 5866 5869 5871 5874 5877 5879 5881 5883 5885 5887 5889 5891 5893 5895 5896 5897 5899 5900 5901 5902 5903 5904 5905 5907 5908 5909 5910 5911 5913 5914 5916 5917 5918 5919 5920 5920 5921 5922 5923 5924 5925 5926 5928 5929 5929 5929 5929 5929 5929 5929 5929 5930 5930 5930 5930 5930 5930 5929 5929 5928 5928 5928 5928 5929 5928 5928 5927 5926 5925 5925
5826 5828 5828 5829 5831 5833 5836 5839 5842 5844 5845 5847 5848 5850 5852 5855 5858 5861 5864 5867 5869 5872 5874 5876 5878 5880 5883 5885 5887 5889 5891 5893 5895 5896 5897 5898 5899 5900 5901 5903 5904 5905 5907 5908 5909 5910 5912 5913 5914 5915 5916 5917 5918 5919 5919 5920 5921 5923 5923 5924 5926 5926 5927 5927 5927 5927 5927 5927 5928 5928 5928 5928 5928 5929 5928 5927 5927 5926 5925 5926 5927 5927 5927 5927 5926 5925 5924 5924
5824 5825 5826 5827 5828 5830 5833 5835 5838 5841 5843 5845 5846 5848 5849 5852 5855 5858 5861 5864 5867 5869 5872 5874 5876 5878 5881 5882 5884 5886 5888 5890 5892 5894 5895 5896 5897 5899 5900 5901 5903 5904 5906 5907 5908 5909 5910 5912 5913 5914 5915 5915 5916 5916 5917 5918 5919 5920 5920 5921 5922 5923 5924 5924 5925 5925 5925 5925 5927 5927 5927 5926 5926 5927 5926 5926 5925 5924 5924 5925 5925 5926 5926 5925 5925 5924 5923 5923
5821 5823 5824 5825 5826 5828 5830 5832 5835 5838 5841 5843 5844 5846 5847 5849 5852 5855 5858 5862 5864 5867 5870 5872 5874 5876 5878 5880 5882 5884 5886 5887 5890 5891 5893 5894 5896 5897 5898 5899 5902 5903 5905 5906 5907 5908 5909 5910 5911 5912 5913 5913 5914 5914 5915 5916 5917 5918 5918 5919 5920 5920 5921 5922 5923 5923 5923 5923 5925 5925 5925 5924 5924 5925 5925 5924 5923 5923 5923 5924 5924 5924 5924 5924 5923 5923 5922 5922
5818 5820 5822 5822 5824 5825 5827 5829 5831 5835 5838 5840 5842 5843 5845 5847 5849 5852 5856 5859 5862 5865 5867 5870 5872 5874 5876 5879 5881 5883 5884 5885 5887 5889 5891 5892 5894 5895 5896 5898 5900 5902 5903 5905 5905 5907 5908 5909 5910 5911 5911 5912 5912 5913 5914 5914 5915 5916 5917 5918 5918 5919 5919 5920 5921 5921 5921 5921 5923 5923 5922 5922 5922 5923 5923 5922 5922 5921 5921 5922 5922 5922 5922 5921 5921 5920 5920 5920
5815 5818 5819 5820 5821 5823 5824 5826 5828 5831 5835 5838 5840 5841 5843 5844 5847 5851 5854 5857 5860 5862 5864 5867 5869 5872 5874 5876 5878 5880 5882 5884 5885 5888 5889 5891 5892 5894 5895 5897 5899 5901 5902 5903 5904 5905 5906 5907 5908 5909 5909 5910 5911 5911 5912 5913 5913 5914 5915 5916 5917 5917 5917 5918 5918 5918 5919 5919 5920 5920 5919 5919 5920 5921 5921 5920 5920 5920 5919 5920 5920 5920 5920 5919 5919 5918 5917 5917
5812 5815 5816 5818 5819 5820 5822 5824 5826 5828 5832 5835 5837 5839 5840 5842 5845 5849 5852 5854 5856 5859 5861 5864 5866 5869 5871 5873 5875 5877 5879 5881 5883 5885 5887 5889 5891 5892 5893 5895 5896 5898 5900 5901 5902 5903 5904 5904 5906 5907 5908 5908 5909 5910 5910 5911 5912 5913 5914 5914 5915 5915 5915 5916 5916 5916 5917 5917 5917 5917 5916 5916 5918 5918 5918 5918 5918 5918 5917 5917 5917 5918 5918 5917 5917 5916 5915 5915
5809 5811 5813 5815 5816 5818 5820 5822 5823 5825 5828 5832 5835 5836 5838 5841 5844 5847 5849 5851 5853 5856 5858 5860 5863 5865 5867 5870 5872 5874 5876 5879 5880 5883 5885 5886 5888 5889 5891 5893 5894 5896 5897 5899 5900 5901 5902 5903 5904 5905 5906 5907 5908 5908 5909 5910 5911 5911 5912 5913 5913 5913 5914 5914 5914 5914 5914 5914 5914 5915 5914 5914 5915 5916 5916 5916 5916 5915 5915 5914 5914 5915 5915 5915 5915 5914 5913 5913
5806 5808 5810 5812 5814 5816 5818 5820 5821 5822 5825 5828 5831 5834 5837 5840 5843 5844 5845 5848 5850 5853 5855 5858 5860 5863 5865 5867 5869 5871 5874 5876 5877 5880 5882 5884 5886 5888 5890 5891 5892 5894 5895 5897 5898 5899 5900 5901 5903 5904 5905 5905 5906 5907 5907 5908 5909 5910 5910 5911 5912 5912 5912 5912 5912 5912 5912 5912 5912 5912 5913 5913 5913 5914 5914 5913 5913 5913 5913 5912 5912 5912 5912 5912 5912 5911 5910 5910
5803 5805 5807 5809 5811 5813 5816 5818 5818 5819 5821 5824 5828 5832 5836 5839 5840 5841 5843 5845 5848 5850 5853 5856 5858 5860 5863 5865 5866 5868 5871 5873 5875 5877 5879 5881 5883 5885 5887 5889 5890 5891 5893 5895 5896 5898 5899 5900 5901 5902 5903 5903 5904 5905 5906 5907 5908 5908 5909 5909 5910 5910 5910 5911 5911 5910 5910 5910 5910 5910 5911 5911 5911 5912 5911 5911 5911 5910 5910 5910 5909 5909 5909 5909 5909 5908 5907 5907
5800 5802 5803 5805 5808 5811 5813 5815 5815 5816 5818 5821 5825 5830 5834 5836 5837 5838 5840 5843 5845 5848 5851 5854 5856 5858 5860 5862 5864 5866 5868 5870 5872 5874 5877 5879 5881 5883 5885 5886 5888 5889 5891 5893 5895 5896 5898 5899 5900 5900 5901 5902 5903 5904 5905 5906 5906 5907 5908 5908 5908 5909 5909 5909 5909 5908 5908 5908 5908 5908 5909 5909 5910 5910 5909 5908 5908 5908 5908 5907 5906 5906 5906 5906 5906 5905 5904 5904
5797 5799 5801 5802 5805 5808 5810 5811 5812 5813 5815 5818 5822 5827 5831 5833 5834 5836 5838 5840 5843 5845 5848 5851 5853 5855 5858 5860 5862 5864 5866 5868 5870 5872 5875 5876 5879 5881 5883 5885 5886 5888 5889 5890 5892 5894 5895 5897 5897 5898 5899 5900 5901 5902 5903 5904 5905 5906 5906 5906 5907 5907 5907 5907 5907 5906 5906 5906 5906 5906 5907 5907 5908 5908 5906 5905 5905 5905 5905 5904 5904 5903 5903 5903 5903 5902 5901 5901
5794 5796 5797 5799 5802 5805 5807 5808 5809 5810 5812 5815 5820 5824 5828 5831 5832 5834 5836 5838 5840 5843 5845 5848 5850 5853 5855 5858 5860 5861 5863 5866 5868 5870 5873 5874 5877 5880 5881 5883 5884 5885 5886 5887 5889 5891 5893 5894 5895 5896 5897 5898 5898 5900 5901 5902 5903 5904 5904 5904 5905 5905 5905 5905 5905 5904 5904 5904 5904 5904 5905 5906 5906 5905 5904 5903 5903 5902 5902 5901 5901 5900 5900 5899 5899 5899 5898 5898
5792 5793 5794 5796 5799 5801 5804 5805 5806 5808 5810 5813 5817 5821 5825 5828 5829 5831 5834 5836 5838 5840 5842 5845 5848 5850 5853 5855 5857 5859 5861 5863 5865 5868 5870 5872 5876 5878 5879 5881 5882 5883 5883 5884 5886 5888 5890 5891 5892 5893 5894 5895 5896 5898 5899 5901 5901 5901 5902 5902 5902 5902 5902 5903 5902 5902 5902 5902 5902 5902 5903 5905 5904 5902 5901 5900 5900 5900 5899 5899 5898 5897 5897 5896 5896 5896 5895 5894
5789 5790 5792 5793 5796 5798 5800 5802 5803 5805 5808 5811 5814 5818 5821 5824 5826 5829 5831 5833 5835 5837 5840 5843 5845 5848 5850 5852 5854 5856 5858 5861 5863 5865 5867 5870 5874 5876 5877 5878 5879 5880 5881 5882 5884 5886 5887 5889 5890 5891 5892 5893 5895 5896 5897 5898 5898 5899 5899 5899 5900 5900 5900 5900 5900 5900 5900 5900 5900 5900 5901 5903 5901 5899 5898 5898 5898 5898 5897 5896 5895 5895 5894 5894 5893 5893 5892 5891
5786 5787 5789 5791 5793 5795 5797 5799 5800 5803 5805 5808 5811 5814 5817 5821 5823 5825 5828 5830 5833 5835 5837 5840 5843 5845 5847 5849 5852 5854 5856 5858 5860 5862 5865 5868 5871 5874 5874 5875 5877 5878 5878 5880 5882 5884 5885 5887 5888 5889 5890 5891 5892 5893 5894 5895 5896 5896 5896 5897 5897 5897 5898 5898 5897 5897 5897 5897 5898 5897 5898 5900 5899 5897 5896 5896 5895 5895 5894 5894 5893 5892 5892 5891 5891 5890 5889 5888
5782 5784 5786 5788 5790 5792 5794 5795 5798 5800 5803 5805 5808 5811 5814 5817 5820 5822 5824 5827 5829 5832 5835 5837 5840 5842 5845 5847 5849 5851 5853 5856 5858 5860 5863 5866 5868 5870 5871 5873 5874 5875 5876 5878 5880 5881 5883 5884 5885 5887 5888 5888 5889 5891 5892 5892 5893 5893 5893 5894 5895 5895 5895 5895 5894 5894 5894 5895 5895 5894 5895 5897 5896 5894 5894 5893 5893 5892 5891 5891 5890 5889 5889 5888 5887 5887 5886 5885
5779 5781 5783 5784 5786 5789 5790 5792 5795 5797 5799 5802 5805 5807 5810 5813 5816 5818 5821 5823 5826 5829 5832 5834 5837 5840 5842 5844 5846 5848 5850 5853 5856 5858 5860 5863 5865 5867 5869 5870 5871 5873 5874 5876 5878 5879 5880 5881 5882 5883 5884 5885 5886 5887 5888 5889 5890 5890 5891 5892 5892 5892 5892 5892 5892 5891 5891 5892 5892 5891 5892 5894 5892 5891 5891 5890 5890 5889 5888 5887 5887 5886 5885 5884 5883 5883 5882 5881
5776 5777 5779 5781 5783 5785 5787 5789 5792 5794 5796 5799 5801 5804 5807 5810 5813 5815 5818 5821 5823 5826 5829 5831 5834 5837 5839 5841 5843 5845 5848 5850 5853 5855 5857 5860 5862 5864 5866 5868 5869 5871 5872 5874 5875 5876 5877 5878 5880 5880 5881 5882 5884 5885 5886 5888 5887 5888 5888 5889 5889 5889 5889 5889 5889 5888 5888 5889 5888 5888 5889 5890 5890 5889 5888 5887 5887 5886 5885 5884 5883 5882 5881 5880 5879 5879 5878 5878
5772 5774 5776 5778 5780 5781 5784 5786 5789 5791 5793 5795 5798 5801 5803 5806 5809 5812 5815 5817 5819 5822 5826 5828 5831 5834 5836 5838 5840 5842 5845 5847 5850 5852 5855 5857 5859 5861 5864 5865 5867 5868 5870 5871 5872 5873 5874 5875 5877 5878 5879 5880 5882 5883 5884 5885 5884 5884 5885 5886 5886 5886 5886 5886 5885 5885 5885 5884 5884 5885 5885 5885 5887 5886 5884 5884 5884 5883 5882 5881 5880 5879 5878 5876 5875 5874 5874 5874
5768 5770 5772 5775 5776 5778 5781 5783 5785 5787 5790 5792 5795 5797 5800 5803 5806 5808 5811 5813 5815 5819 5822 5825 5827 5830 5833 5835 5838 5840 5842 5844 5847 5849 5851 5853 5856 5858 5860 5862 5864 5866 5867 5869 5869 5870 5871 5872 5874 5875 5876 5878 5879 5879 5880 5880 5880 5881 5882 5882 5883 5883 5883 5883 5882 5882 5882 5880 5880 5882 5881 5881 5884 5883 5880 5880 5879 5879 5878 5877 5876 5875 5874 5873 5872 5871 5870 5870
5765 5766 5769 5771 5773 5775 5777 5780 5782 5784 5787 5789 5791 5794 5796 5799 5802 5804 5806 5808 5812 5815 5819 5821 5824 5827 5829 5832 5834 5837 5839 5841 5843 5846 5848 5850 5853 5855 5857 5860 5861 5863 5865 5866 5867 5868 5869 5870 5871 5872 5873 5874 5875 5876 5876 5877 5877 5878 5878 5879 5879 5879 5879 5880 5879 5878 5878 5877 5877 5877 5877 5878 5880 5878 5876 5876 5874 5874 5874 5873 5872 5871 5870 5869 5868 5867 5867 5866
5761 5763 5765 5767 5769 5772 5774 5776 5778 5781 5783 5786 5788 5790 5793 5795 5798 5800 5802 5805 5808 5811 5815 5817 5820 5823 5826 5828 5831 5833 5835 5838 5840 5843 5845 5847 5849 5852 5854 5856 5858 5860 5862 5863 5864 5865 5867 5868 5868 5869 5871 5871 5872 5873 5874 5874 5875 5875 5875 5875 5875 5875 5876 5876 5875 5875 5874 5873 5873 5872 5872 5875 5876 5873 5871 5871 5870 5870 5869 5868 5867 5866 5865 5865 5864 5863 5863 5862
5757 5759 5761 5764 5766 5768 5770 5773 5775 5777 5780 5782 5785 5787 5789 5791 5794 5797 5799 5801 5804 5807 5811 5813 5816 5819 5822 5825 5827 5830 5832 5834 5837 5840 5842 5844 5846 5848 5851 5852 5854 5856 5858 5860 5861 5862 5864 5865 5865 5866 5868 5868 5869 5870 5871 5871 5871 5871 5871 5871 5871 5872 5872 5872 5871 5871 5870 5868 5868 5867 5868 5871 5872 5868 5867 5867 5866 5865 5864 5863 5863 5862 5861 5861 5860 5860 5859 5858
5753 5755 5757 5760 5762 5764 5767 5769 5771 5774 5776 5778 5781 5783 5785 5788 5790 5793 5795 5797 5800 5803 5806 5809 5812 5815 5818 5820 5823 5826 5828 5831 5834 5836 5838 5841 5843 5845 5847 5848 5851 5853 5854 5856 5857 5858 5859 5860 5861 5862 5864 5864 5865 5866 5867 5867 5867 5867 5868 5868 5868 5869 5868 5868 5868 5867 5866 5864 5864 5864 5864 5866 5865 5863 5863 5863 5861 5861 5860 5859 5858 5858 5857 5857 5856 5855 5854 5853
5748 5751 5753 5755 5758 5760 5763 5765 5768 5770 5772 5774 5777 5779 5782 5784 5787 5789 5791 5793 5796 5799 5802 5805 5808 5810 5813 5816 5818 5821 5824 5827 5829 5832 5834 5836 5838 5840 5842 5844 5846 5848 5850 5851 5852 5854 5855 5856 5857 5858 5859 5860 5861 5862 5863 5863 5862 5862 5864 5865 5865 5865 5864 5864 5864 5863 5861 5860 5860 5861 5861 5860 5859 5859 5858 5858 5857 5856 5855 5854 5853 5853 5852 5852 5852 5851 5849 5848